FW6720 Weather Reports


Display with metric or nautical units.
time (UTC)temp
F
wind
direction
speed
MPH
gust
MPH
rain 1hr
in
rain 24hr
in
rain mn
in
humidity
%
barometer
mb
20260831201754 82 67 3.0 3.0 0.00 0.00 0.00 32 1011.6
20260831201253 81 1 0.0 0.0 0.00 0.00 0.00 36 1011.5
20260831200749 81 0 0.0 0.0 0.00 0.00 0.00 35 1011.4
20260831200244 80 50 0.0 0.0 0.00 0.00 0.00 36 1011.6
20260831195739 81 49 0.0 0.0 0.00 0.00 0.00 36 1011.7
20260831195235 81 49 0.0 0.0 0.00 0.00 0.00 35 1011.6
20260831194730 80 20 0.0 0.0 0.00 0.00 0.00 39 1011.8
20260831194226 80 1 0.0 0.0 0.00 0.00 0.00 39 1011.7
20260831193719 81 358 1.0 3.0 0.00 0.00 0.00 37 1011.8
20260831193214 81 58 0.0 0.0 0.00 0.00 0.00 36 1011.9
20260831192710 80 30 0.0 0.0 0.00 0.00 0.00 40 1011.9
20260831192205 79 49 0.0 0.0 0.00 0.00 0.00 37 1012.0
20260831191701 80 48 0.0 0.0 0.00 0.00 0.00 37 1012.1
20260831191157 80 69 0.0 0.0 0.00 0.00 0.00 37 1012.2
20260831190651 79 69 0.0 0.0 0.00 0.00 0.00 41 1012.4
20260831190151 79 70 0.0 0.0 0.00 0.00 0.00 40 1012.6
20260831185646 80 70 0.0 0.0 0.00 0.00 0.00 45 1012.4
20260831185142 78 71 0.0 0.0 0.00 0.00 0.00 47 1012.6
20260831184641 77 21 0.0 0.0 0.00 0.00 0.00 42 1012.6
20260831184137 77 21 0.0 0.0 0.00 0.00 0.00 45 1012.6
20260831183636 77 19 0.0 0.0 0.00 0.00 0.00 48 1012.6
20260831183136 76 20 0.0 0.0 0.00 0.00 0.00 51 1012.9
20260831182635 76 19 0.0 0.0 0.00 0.00 0.00 51 1012.7
20260831182131 76 19 0.0 0.0 0.00 0.00 0.00 52 1012.8
20260831181626 75 18 0.0 0.0 0.00 0.00 0.00 50 1012.9
20260831181125 74 18 0.0 0.0 0.00 0.00 0.00 51 1012.7
20260831180621 74 46 0.0 0.0 0.00 0.00 0.00 53 1012.7
20260831180116 74 46 0.0 0.0 0.00 0.00 0.00 53 1013.2
20260831175610 74 45 0.0 0.0 0.00 0.00 0.00 53 1013.1
20260831175108 73 45 0.0 0.0 0.00 0.00 0.00 54 1013.1
20260831174607 73 45 0.0 0.0 0.00 0.00 0.00 55 1013.1
20260831174102 72 45 0.0 0.0 0.00 0.00 0.00 55 1013.3
20260831173600 72 45 0.0 0.0 0.00 0.00 0.00 53 1013.3
20260831173057 73 44 0.0 0.0 0.00 0.00 0.00 56 1013.2
20260831172551 71 44 0.0 0.0 0.00 0.00 0.00 54 1013.1
20260831172046 72 44 0.0 0.0 0.00 0.00 0.00 55 1013.3
20260831171541 71 44 0.0 0.0 0.00 0.00 0.00 55 1013.4
20260831171038 70 44 0.0 0.0 0.00 0.00 0.00 60 1013.2
20260831170534 69 44 0.0 0.0 0.00 0.00 0.00 59 1013.3
20260831170032 68 44 0.0 0.0 0.00 0.00 0.00 61 1013.4
20260831165531 68 44 0.0 0.0 0.00 0.00 0.00 61 1013.4
20260831165028 68 45 0.0 0.0 0.00 0.00 0.00 62 1013.5
20260831164524 68 46 0.0 0.0 0.00 0.00 0.00 62 1013.4
20260831164019 67 45 0.0 0.0 0.00 0.00 0.00 64 1013.7
20260831163514 66 346 0.0 0.0 0.00 0.00 0.00 67 1013.9
20260831163009 65 345 0.0 0.0 0.00 0.00 0.00 69 1013.8
20260831162509 64 345 0.0 0.0 0.00 0.00 0.00 70 1013.8
20260831162006 64 345 0.0 0.0 0.00 0.00 0.00 70 1013.7
20260831161503 62 345 0.0 0.0 0.00 0.00 0.00 72 1013.6
20260831160959 61 345 0.0 0.0 0.00 0.00 0.00 73 1013.9
20260831160458 62 345 0.0 0.0 0.00 0.00 0.00 74 1013.8
20260831155953 59 345 0.0 0.0 0.00 0.00 0.00 79 1013.9
20260831155448 57 345 0.0 0.0 0.00 0.00 0.00 83 1014.0
20260831154943 55 345 0.0 0.0 0.00 0.00 0.00 90 1014.0
20260831154440 52 345 0.0 0.0 0.00 0.00 0.00 93 1013.9
20260831153938 51 345 0.0 0.0 0.00 0.00 0.00 93 1014.3
20260831153434 51 345 0.0 0.0 0.00 0.00 0.00 94 1014.0
20260831152931 50 345 0.0 0.0 0.00 0.00 0.00 93 1014.3
20260831152426 50 345 0.0 0.0 0.00 0.00 0.00 94 1014.4
20260831151921 50 345 0.0 0.0 0.00 0.00 0.00 94 1014.5
20260831151420 49 345 0.0 0.0 0.00 0.00 0.00 94 1014.5
20260831150916 49 345 0.0 0.0 0.00 0.00 0.00 94 1014.5
20260831150411 49 345 0.0 0.0 0.00 0.00 0.00 94 1014.5
20260831145910 48 346 0.0 0.0 0.00 0.00 0.00 94 1014.4
20260831145406 48 346 0.0 0.0 0.00 0.00 0.00 94 1014.6
20260831144902 48 346 0.0 0.0 0.00 0.00 0.00 94 1014.5
20260831144358 48 346 0.0 0.0 0.00 0.00 0.00 94 1014.3
20260831143853 48 346 0.0 0.0 0.00 0.00 0.00 94 1014.2
20260831143348 48 346 0.0 0.0 0.00 0.00 0.00 94 1014.5
20260831142843 48 346 0.0 0.0 0.00 0.00 0.00 94 1014.3
20260831142338 48 346 0.0 0.0 0.00 0.00 0.00 94 1014.4
20260831141838 48 346 0.0 0.0 0.00 0.00 0.00 94 1014.6
20260831141333 48 346 0.0 0.0 0.00 0.00 0.00 94 1014.2
20260831140828 48 346 0.0 0.0 0.00 0.00 0.00 94 1014.4
20260831140322 48 346 0.0 0.0 0.00 0.00 0.00 94 1014.4
20260831135820 48 346 0.0 0.0 0.00 0.00 0.00 94 1014.5
20260831135316 48 346 0.0 0.0 0.00 0.00 0.00 94 1014.6
20260831134811 48 346 0.0 0.0 0.00 0.00 0.00 94 1014.5
20260831134307 48 346 0.0 0.0 0.00 0.00 0.00 94 1014.4
20260831133806 48 346 0.0 0.0 0.00 0.00 0.00 94 1014.5
20260831133301 48 346 0.0 0.0 0.00 0.00 0.00 94 1014.6
20260831132756 48 346 0.0 0.0 0.00 0.00 0.00 94 1014.7
20260831132251 48 346 0.0 0.0 0.00 0.00 0.00 93 1014.6
20260831131750 48 346 0.0 0.0 0.00 0.00 0.00 93 1014.7
20260831131247 48 346 0.0 0.0 0.00 0.00 0.00 93 1014.5
20260831130742 48 346 0.0 0.0 0.00 0.00 0.00 93 1014.5
20260831130237 48 346 0.0 0.0 0.00 0.00 0.00 93 1014.5
20260831125736 48 346 0.0 0.0 0.00 0.00 0.00 93 1014.6
20260831125232 48 346 0.0 0.0 0.00 0.00 0.00 93 1014.7
20260831124726 48 346 0.0 0.0 0.00 0.00 0.00 92 1014.6
20260831124223 48 346 0.0 0.0 0.00 0.00 0.00 92 1014.8
20260831123722 48 346 0.0 0.0 0.00 0.00 0.00 92 1014.9
20260831123221 49 346 0.0 0.0 0.00 0.00 0.00 92 1014.9
20260831122716 49 346 0.0 0.0 0.00 0.00 0.00 92 1014.7
20260831122212 49 346 0.0 0.0 0.00 0.00 0.00 92 1014.9
20260831121711 49 346 0.0 0.0 0.00 0.00 0.00 92 1015.0
20260831121208 49 346 0.0 0.0 0.00 0.00 0.00 91 1015.2
20260831120703 49 346 0.0 0.0 0.00 0.00 0.00 91 1015.2
20260831120157 49 346 0.0 0.0 0.00 0.00 0.00 91 1015.1
20260831115653 49 346 0.0 0.0 0.00 0.00 0.00 91 1015.3
20260831115148 49 346 0.0 0.0 0.00 0.00 0.00 91 1015.1
20260831114648 49 346 0.0 0.0 0.00 0.00 0.00 91 1015.2
20260831114142 49 346 0.0 0.0 0.00 0.00 0.00 90 1015.2
20260831113642 49 346 0.0 0.0 0.00 0.00 0.00 91 1015.2
20260831113138 49 346 0.0 0.0 0.00 0.00 0.00 90 1015.3
20260831112636 49 346 0.0 0.0 0.00 0.00 0.00 90 1015.3
20260831112132 49 346 0.0 0.0 0.00 0.00 0.00 90 1015.1
20260831111628 49 346 0.0 0.0 0.00 0.00 0.00 90 1015.3
20260831111124 50 346 0.0 0.0 0.00 0.00 0.00 90 1015.4
20260831110619 50 346 0.0 0.0 0.00 0.00 0.00 90 1015.3
20260831110114 50 346 0.0 0.0 0.00 0.00 0.00 90 1015.4
20260831105613 50 346 0.0 0.0 0.00 0.00 0.00 90 1015.3
20260831105108 50 346 0.0 0.0 0.00 0.00 0.00 89 1015.2
20260831104604 50 346 0.0 0.0 0.00 0.00 0.00 89 1015.5
20260831104100 50 346 0.0 0.0 0.00 0.00 0.00 89 1015.4
20260831103555 50 346 0.0 0.0 0.00 0.00 0.00 89 1015.4
20260831103051 50 346 0.0 0.0 0.00 0.00 0.00 89 1015.6
20260831102550 50 346 0.0 0.0 0.00 0.00 0.00 89 1015.8
20260831102045 50 346 0.0 0.0 0.00 0.00 0.00 89 1015.5
20260831101540 50 346 0.0 0.0 0.00 0.00 0.00 89 1015.7
20260831101037 50 346 0.0 0.0 0.00 0.00 0.00 89 1015.8
20260831100532 50 346 0.0 0.0 0.00 0.00 0.00 88 1015.6
20260831100028 50 346 0.0 0.0 0.00 0.00 0.00 88 1015.9
20260831095526 50 346 0.0 0.0 0.00 0.00 0.00 88 1016.1
20260831095021 50 346 0.0 0.0 0.00 0.00 0.00 88 1016.1
20260831094518 50 346 0.0 0.0 0.00 0.00 0.00 88 1015.9
20260831094013 50 346 0.0 0.0 0.00 0.00 0.00 88 1015.9
20260831093513 50 346 0.0 0.0 0.00 0.00 0.00 88 1016.2
20260831093010 50 346 0.0 0.0 0.00 0.00 0.00 88 1016.2
20260831092505 50 346 0.0 0.0 0.00 0.00 0.00 88 1016.3
20260831092000 50 346 0.0 0.0 0.00 0.00 0.00 88 1016.2
20260831091455 51 346 0.0 0.0 0.00 0.00 0.00 88 1016.1
20260831090950 51 346 0.0 0.0 0.00 0.00 0.00 87 1016.3
20260831090447 51 346 0.0 0.0 0.00 0.00 0.00 87 1016.4
20260831085942 51 346 0.0 0.0 0.00 0.00 0.00 87 1016.4
20260831085437 51 346 0.0 0.0 0.00 0.00 0.00 87 1016.5
20260831084937 51 346 0.0 0.0 0.00 0.00 0.00 87 1016.6
20260831084433 51 346 0.0 0.0 0.00 0.00 0.00 86 1016.4
20260831083930 51 346 0.0 0.0 0.00 0.00 0.00 86 1016.9
20260831083424 51 346 0.0 0.0 0.00 0.00 0.00 86 1016.4
20260831082923 51 346 0.0 0.0 0.00 0.00 0.00 86 1016.6
20260831082418 51 346 0.0 0.0 0.00 0.00 0.00 86 1016.8
20260831081913 51 346 0.0 0.0 0.00 0.00 0.00 86 1016.5
20260831081409 51 346 0.0 0.0 0.00 0.00 0.00 86 1016.9
20260831080905 51 346 0.0 0.0 0.00 0.00 0.00 86 1016.9
20260831080400 51 346 0.0 0.0 0.00 0.00 0.00 86 1016.9
20260831075855 51 346 0.0 0.0 0.00 0.00 0.00 86 1017.0
20260831075350 52 346 0.0 0.0 0.00 0.00 0.00 85 1017.1
20260831074845 52 346 0.0 0.0 0.00 0.00 0.00 85 1016.9
20260831074344 52 346 0.0 0.0 0.00 0.00 0.00 85 1017.0
20260831073840 52 346 0.0 0.0 0.00 0.00 0.00 85 1016.9
20260831073339 52 346 0.0 0.0 0.00 0.00 0.00 85 1017.0
20260831072834 52 346 0.0 0.0 0.00 0.00 0.00 85 1016.9
20260831072329 52 346 0.0 0.0 0.00 0.00 0.00 85 1017.1
20260831071826 52 346 0.0 0.0 0.00 0.00 0.00 85 1017.3
20260831071324 52 346 0.0 0.0 0.00 0.00 0.00 85 1017.2
20260831070820 52 346 0.0 0.0 0.00 0.00 0.00 84 1017.2
20260831070319 53 346 0.0 0.0 0.00 0.00 0.00 84 1017.4
20260831065818 53 346 0.0 0.0 0.00 0.00 0.00 84 1017.4
20260831065316 53 346 0.0 0.0 0.00 0.00 0.00 84 1017.5
20260831064812 53 346 0.0 0.0 0.00 0.00 0.00 84 1017.4
20260831064307 53 346 0.0 0.0 0.00 0.00 0.00 84 1017.6
20260831063803 53 346 0.0 0.0 0.00 0.00 0.00 84 1017.9
20260831063258 53 346 0.0 0.0 0.00 0.00 0.00 84 1017.7
20260831062757 53 346 0.0 0.0 0.00 0.00 0.00 83 1017.9
20260831062252 53 346 0.0 0.0 0.00 0.00 0.00 83 1018.0
20260831061751 53 346 0.0 0.0 0.00 0.00 0.00 83 1017.9
20260831061245 53 346 0.0 0.0 0.00 0.00 0.00 83 1018.0
20260831060742 53 346 0.0 0.0 0.00 0.00 0.00 83 1018.1
20260831060242 54 346 0.0 0.0 0.00 0.00 0.00 83 1018.2
20260831055741 54 346 0.0 0.0 0.00 0.00 0.00 83 1018.1
20260831055241 54 346 0.0 0.0 0.00 0.00 0.00 82 1018.2
20260831054737 54 346 0.0 0.0 0.00 0.00 0.00 82 1018.2
20260831054232 54 346 0.0 0.0 0.00 0.00 0.00 82 1018.3
20260831053730 55 346 0.0 0.0 0.00 0.00 0.00 82 1018.5
20260831053229 55 346 0.0 0.0 0.00 0.00 0.00 81 1018.4
20260831052724 55 346 0.0 0.0 0.00 0.00 0.00 81 1018.4
20260831052223 55 346 0.0 0.0 0.00 0.00 0.00 81 1018.6
20260831051721 55 346 0.0 0.0 0.00 0.00 0.00 81 1018.5
20260831051220 55 346 0.0 0.0 0.00 0.00 0.00 80 1018.7
20260831050715 56 346 0.0 0.0 0.00 0.00 0.00 80 1018.7
20260831050214 56 346 0.0 0.0 0.00 0.00 0.00 80 1018.6
20260831045708 56 346 0.0 0.0 0.00 0.00 0.00 79 1018.7
20260831045203 56 346 0.0 0.0 0.00 0.00 0.00 79 1018.9
20260831044658 56 346 0.0 0.0 0.00 0.00 0.00 79 1018.6
20260831044153 57 346 0.0 0.0 0.00 0.00 0.00 78 1018.9
20260831043649 57 346 0.0 0.0 0.00 0.00 0.00 78 1019.0
20260831043144 57 346 0.0 0.0 0.00 0.00 0.00 78 1018.8
20260831042643 57 346 0.0 0.0 0.00 0.00 0.00 78 1018.7
20260831042138 57 346 0.0 0.0 0.00 0.00 0.00 77 1018.7
20260831041638 57 346 0.0 0.0 0.00 0.00 0.00 77 1018.8
20260831041133 58 346 0.0 0.0 0.00 0.00 0.00 77 1018.8
20260831040628 58 346 0.0 0.0 0.00 0.00 0.00 76 1018.7
20260831040127 58 346 0.0 0.0 0.00 0.00 0.00 76 1018.7
20260831035626 58 346 0.0 0.0 0.00 0.00 0.00 75 1018.8
20260831035120 59 346 0.0 0.0 0.00 0.00 0.00 75 1018.7
20260831034619 59 346 0.0 0.0 0.00 0.00 0.00 75 1018.8
20260831034115 59 346 0.0 0.0 0.00 0.00 0.00 74 1018.6
20260831033610 59 346 0.0 0.0 0.00 0.00 0.00 73 1018.5
20260831033105 60 346 0.0 0.0 0.00 0.00 0.00 73 1018.6
20260831032605 60 346 0.0 0.0 0.00 0.00 0.00 73 1018.7
20260831032101 60 346 0.0 0.0 0.00 0.00 0.00 72 1018.7
20260831031601 61 346 0.0 0.0 0.00 0.00 0.00 71 1018.6
20260831031059 61 346 0.0 0.0 0.00 0.00 0.00 70 1018.8
20260831030559 61 346 0.0 0.0 0.00 0.00 0.00 70 1018.8
20260831030058 62 346 0.0 0.0 0.00 0.00 0.00 69 1018.8
20260831025556 62 346 0.0 0.0 0.00 0.00 0.00 68 1018.5
20260831025052 63 346 0.0 0.0 0.00 0.00 0.00 68 1018.7
20260831024548 63 346 0.0 0.0 0.00 0.00 0.00 67 1018.8
20260831024046 64 346 0.0 0.0 0.00 0.00 0.00 66 1019.1
20260831023545 64 346 0.0 0.0 0.00 0.00 0.00 65 1018.8
20260831023039 64 345 0.0 0.0 0.00 0.00 0.00 64 1019.0
20260831022539 65 345 0.0 0.0 0.00 0.00 0.00 64 1019.0
20260831022035 65 345 0.0 0.0 0.00 0.00 0.00 62 1018.8
20260831021533 65 345 0.0 0.0 0.00 0.00 0.00 61 1018.9
20260831021029 66 345 0.0 0.0 0.00 0.00 0.00 61 1019.1
20260831020524 66 345 0.0 0.0 0.00 0.00 0.00 61 1018.8
20260831020019 66 345 0.0 0.0 0.00 0.00 0.00 60 1019.0
20260831015515 67 345 0.0 0.0 0.00 0.00 0.00 60 1019.0
20260831015010 67 345 0.0 0.0 0.00 0.00 0.00 59 1019.0
20260831014504 68 345 0.0 0.0 0.00 0.00 0.00 59 1018.9
20260831014000 68 345 0.0 0.0 0.00 0.00 0.00 58 1019.0
20260831013456 68 345 0.0 0.0 0.00 0.00 0.00 58 1018.9
20260831012955 68 345 0.0 0.0 0.00 0.00 0.00 58 1019.2
20260831012451 69 345 0.0 0.0 0.00 0.00 0.00 57 1019.1
20260831011950 69 345 0.0 0.0 0.00 0.00 0.00 56 1019.1
20260831011445 69 345 0.0 0.0 0.00 0.00 0.00 57 1019.2
20260831010941 69 345 0.0 0.0 0.00 0.00 0.00 56 1019.1
20260831010441 70 345 0.0 0.0 0.00 0.00 0.00 55 1019.1
20260831005937 70 345 0.0 0.0 0.00 0.00 0.00 55 1019.2
20260831005432 70 345 0.0 0.0 0.00 0.00 0.00 54 1019.3
20260831004932 70 345 0.0 0.0 0.00 0.00 0.00 54 1019.2
20260831004429 71 345 0.0 0.0 0.00 0.00 0.00 54 1019.2
20260831003924 71 345 0.0 0.0 0.00 0.00 0.00 52 1019.3
20260831003420 71 345 0.0 0.0 0.00 0.00 0.00 55 1019.4
20260831002919 71 345 0.0 0.0 0.00 0.00 0.00 52 1019.2
20260831002418 71 345 0.0 0.0 0.00 0.00 0.00 52 1019.3
20260831001914 72 345 0.0 0.0 0.00 0.00 0.00 52 1019.5
20260831001409 72 345 0.0 0.0 0.00 0.00 0.00 52 1019.3
20260831000906 72 345 0.0 0.0 0.00 0.00 0.00 51 1019.3
20260831000403 72 345 0.0 0.0 0.00 0.00 0.00 51 1019.2
20260830235900 72 345 0.0 0.0 0.00 0.00 0.00 51 1019.2
20260830235354 72 345 0.0 0.0 0.00 0.00 0.00 50 1019.4
20260830234850 72 345 0.0 0.0 0.00 0.00 0.00 50 1019.3
20260830234345 72 345 0.0 0.0 0.00 0.00 0.00 50 1019.3
20260830233841 72 345 0.0 0.0 0.00 0.00 0.00 50 1019.3
20260830233337 72 345 0.0 0.0 0.00 0.00 0.00 50 1019.4
20260830232832 73 345 0.0 0.0 0.00 0.00 0.00 50 1019.6
20260830232328 73 345 0.0 0.0 0.00 0.00 0.00 48 1019.4
20260830231824 73 344 0.0 0.0 0.00 0.00 0.00 48 1019.4
20260830231319 74 344 3.0 3.0 0.00 0.00 0.00 47 1019.6
20260830230813 75 346 0.0 0.0 0.00 0.00 0.00 47 1019.7
20260830230308 75 346 0.0 0.0 0.00 0.00 0.00 46 1019.8
20260830225808 75 346 0.0 0.0 0.00 0.00 0.00 47 1019.9
20260830225305 75 346 0.0 0.0 0.00 0.00 0.00 46 1019.8
20260830224802 74 346 0.0 0.0 0.00 0.00 0.00 47 1019.9
20260830224257 74 346 0.0 0.0 0.00 0.00 0.00 48 1020.2
20260830223754 74 346 0.0 0.0 0.00 0.00 0.00 47 1020.0
20260830223250 75 348 0.0 0.0 0.00 0.00 0.00 46 1020.2
20260830222744 75 347 0.0 1.0 0.00 0.00 0.00 46 1020.2
20260830222239 75 347 0.0 0.0 0.00 0.00 0.00 46 1020.2
20260830221735 76 347 0.0 0.0 0.00 0.00 0.00 46 1020.2
20260830221232 76 62 0.0 0.0 0.00 0.00 0.00 46 1020.3
20260830220727 76 4 0.0 0.0 0.00 0.00 0.00 44 1020.3
20260830220225 76 2 0.0 0.0 0.00 0.00 0.00 46 1020.3
20260830215724 75 8 0.0 0.0 0.00 0.00 0.00 44 1020.5
20260830215219 74 8 0.0 0.0 0.00 0.00 0.00 46 1020.5
20260830214714 75 6 0.0 0.0 0.00 0.00 0.00 46 1020.5
20260830214209 76 5 0.0 0.0 0.00 0.00 0.00 44 1020.6
20260830213708 76 6 0.0 0.0 0.00 0.00 0.00 45 1020.8
20260830213203 75 6 0.0 0.0 0.00 0.00 0.00 45 1020.7
20260830212659 74 6 0.0 0.0 0.00 0.00 0.00 47 1020.9
20260830212154 73 5 0.0 0.0 0.00 0.00 0.00 47 1020.9
20260830211649 73 6 0.0 0.0 0.00 0.00 0.00 46 1021.0
20260830211148 74 0 0.0 0.0 0.00 0.00 0.00 47 1021.2
20260830210644 74 0 0.0 0.0 0.00 0.00 0.00 46 1021.1
20260830210143 74 0 0.0 0.0 0.00 0.00 0.00 46 1021.3
20260830205640 75 5 0.0 1.0 0.00 0.00 0.00 44 1021.0
20260830205136 74 9 0.0 0.0 0.00 0.00 0.00 45 1021.0
20260830204635 74 9 0.0 0.0 0.00 0.00 0.00 45 1021.1
20260830204134 74 42 0.0 1.0 0.00 0.00 0.00 47 1021.2
20260830203631 73 69 1.0 2.0 0.00 0.00 0.00 46 1021.2
20260830203130 72 10 0.0 0.0 0.00 0.00 0.00 45 1021.2
20260830202625 72 9 0.0 0.0 0.00 0.00 0.00 47 1021.4
20260830202120 73 9 0.0 0.0 0.00 0.00 0.00 48 1021.5